Location: Albuquerque Trailhead
(34.7934°N, 106.3736°W)
Time: 23:49:49
(UTC+00:00)

NPP - Pass Details

Date: 20 June 2021
Orbit: 826 x 828 km, 98.7° (Epoch: 27 July)

Event Time Altitude Azimuth Distance (km) Brightness Sun altitude
Rises 08:14:24 0° 21° (NNE) 3,371 8.0 -29.6°
Reaches altitude 10° 08:16:53 10° 28° (NNE) 2,434 7.0 -29.5°
Enters shadow 08:21:57 43° 98° (E) 1,146 4.4 -29.1°
